Lone Rock, WI

9:10 AM CDT on April 21, 2018 (GMT -0500)
Tri-County Regional

Weather History for KLNR - August, 2013

Change the Weather History Date:

Sunday, August 4, 2013

  Actual Average Record
Temperature  
Mean Temperature 62 °F -  
Max Temperature 77 °F 79 °F 90 °F (2016)
Min Temperature 50 °F 58 °F 50 °F (2013)
Degree Days  
Heating Degree Days 2    
Growing Degree Days 12 (Base 50)    
Moisture  
Dew Point 55 °F    
Average Humidity 76    
Maximum Humidity 96    
Minimum Humidity 44    
Precipitation  
Precipitation 0.01 in - - ()
Sea Level Pressure  
Sea Level Pressure 30.16 in    
Wind  
Wind Speed 2 mph (NE)    
Max Wind Speed 7 mph    
Max Gust Speed -    
Visibility 10 miles    
Events Rain    
Averages and records for this station are not official NWS values.
T = Trace of Precipitation, MM = Missing Value Source: NWS Daily Summary

Daily Weather History Graph

Daily Weather History Graph

Search for Another Location

Airport or City:

Astronomy

Aug. 04, 2013 Rise Set
Actual Time 5:54 AM CDT 8:18 PM CDT
Civil Twilight 5:22 AM CDT 8:50 PM CDT
Nautical Twilight 4:42 AM CDT 9:29 PM CDT
Astronomical Twilight 3:58 AM CDT 10:14 PM CDT
Moon 3:54 AM CDT (8/4) 6:41 PM CDT (8/4)
Length of Visible Light 15h 27m
Length of Day
14h 23m
Waning Crescent, 4% of the Moon is Illuminated
Aug 4
Waning Crescent
Aug 6
New
Aug 14
First Quarter
Aug 20
Full
Aug 28
Last Quarter

Hourly Weather History & Observations

Time (CDT) Temp. Dew Point Humidity Pressure Visibility Wind Dir Wind Speed Gust Speed Precip Events Conditions
12:56 AM 55.9 °F 54.0 °F 93% 30.16 in 10.0 mi West 4.6 mph - N/A   Clear
1:56 AM 55.0 °F 53.1 °F 93% 30.17 in 10.0 mi Calm Calm - N/A   Clear
2:56 AM 53.1 °F 51.1 °F 93% 30.18 in 10.0 mi Calm Calm - N/A   Clear
3:56 AM 53.1 °F 51.1 °F 93% 30.18 in 10.0 mi Calm Calm - N/A   Clear
4:56 AM 51.1 °F 50.0 °F 96% 30.17 in 9.0 mi Calm Calm - N/A   Clear
5:56 AM 50.0 °F 48.9 °F 96% 30.19 in 7.0 mi Calm Calm - 0.01 in   Clear
6:56 AM 53.1 °F 51.1 °F 93% 30.20 in 9.0 mi Calm Calm - N/A   Clear
7:56 AM 57.0 °F 54.0 °F 89% 30.22 in 10.0 mi Calm Calm - N/A   Clear
8:56 AM 62.1 °F 55.9 °F 80% 30.23 in 10.0 mi Calm Calm - N/A   Clear
9:56 AM 66.9 °F 57.9 °F 73% 30.22 in 10.0 mi ESE 6.9 mph - N/A   Clear
10:56 AM 71.1 °F 55.9 °F 59% 30.22 in 10.0 mi SE 5.8 mph - N/A   Clear
11:56 AM 73.0 °F 55.0 °F 53% 30.19 in 10.0 mi Calm Calm - N/A   Clear
12:56 PM 75.0 °F 53.1 °F 46% 30.17 in 10.0 mi North 5.8 mph - N/A   Mostly Cloudy
1:56 PM 73.9 °F 52.0 °F 46% 30.16 in 10.0 mi Calm Calm - N/A   Partly Cloudy
2:56 PM 75.0 °F 52.0 °F 44% 30.16 in 10.0 mi NE 4.6 mph - N/A   Mostly Cloudy
3:56 PM 73.9 °F 55.9 °F 53% 30.14 in 10.0 mi NE 4.6 mph - N/A   Clear
4:56 PM 73.0 °F 57.0 °F 57% 30.14 in 10.0 mi North 3.5 mph - N/A   Clear
5:56 PM 72.0 °F 59.0 °F 64% 30.13 in 10.0 mi NE 3.5 mph - N/A   Overcast
6:56 PM 70.0 °F 63.0 °F 78% 30.12 in 10.0 mi Calm Calm - 0.00 in Rain Light Rain
7:56 PM 68.0 °F 61.0 °F 78% 30.10 in 10.0 mi Calm Calm - 0.00 in   Mostly Cloudy
8:56 PM 66.0 °F 61.0 °F 84% 30.10 in 10.0 mi Calm Calm - N/A   Overcast
9:56 PM 64.0 °F 60.1 °F 87% 30.10 in 10.0 mi Calm Calm - N/A   Mostly Cloudy
10:56 PM 62.1 °F 60.1 °F 93% 30.10 in 10.0 mi East 3.5 mph - N/A   Mostly Cloudy
11:56 PM 60.1 °F 57.9 °F 93% 30.09 in 8.0 mi Calm Calm - N/A   Clear